Farmington, NM

2:21 PM MDT on September 26, 2017 (GMT -0600)
Four Corners Regional

Weather History for KFMN - February, 2013

Change the Weather History Date:

Friday, February 8, 2013

  Actual Average Record
Temperature  
Mean Temperature 45 °F -  
Max Temperature 60 °F 45 °F 63 °F (2015)
Min Temperature 30 °F 20 °F 4 °F (1989)
Degree Days  
Heating Degree Days 20    
Moisture  
Dew Point 14 °F    
Average Humidity 34    
Maximum Humidity 69    
Minimum Humidity 4    
Precipitation  
Precipitation 0.00 in - - ()
Sea Level Pressure  
Sea Level Pressure 29.82 in    
Wind  
Wind Speed 13 mph (SSE)    
Max Wind Speed 25 mph    
Max Gust Speed 36 mph    
Visibility 10 miles    
Events      
Averages and records for this station are not official NWS values.
T = Trace of Precipitation, MM = Missing Value Source: NWS Daily Summary

Daily Weather History Graph

Daily Weather History Graph

Search for Another Location

Airport or City:

Trip Planner

Search our weather history database for the weather conditions in past years. The results will help you decide how hot, cold, wet, or windy it might be!

Date:

Astronomy

Feb. 08, 2013 Rise Set
Actual Time 7:08 AM MST 5:46 PM MST
Civil Twilight 6:41 AM MST 6:13 PM MST
Nautical Twilight 6:10 AM MST 6:43 PM MST
Astronomical Twilight 5:40 AM MST 7:14 PM MST
Moon 5:38 AM MST (2/8) 4:24 PM MST (2/8)
Length of Visible Light 11h 31m
Length of Day
10h 38m
Waning Crescent, 3% of the Moon is Illuminated
Feb 8
Waning Crescent
Feb 10
New
Feb 17
First Quarter
Feb 25
Full
Mar 4
Last Quarter

Hourly Weather History & Observations

Time (MST) Temp. Windchill Dew Point Humidity Pressure Visibility Wind Dir Wind Speed Gust Speed Precip Events Conditions
12:53 AM 30.9 °F 23.5 °F 21.9 °F 69% 30.07 in 10.0 mi East 8.1 mph - N/A   Overcast
1:53 AM 33.1 °F 23.4 °F 21.9 °F 64% 30.02 in 10.0 mi East 13.8 mph - N/A   Overcast
2:53 AM 32.0 °F 23.6 °F 21.9 °F 66% 30.01 in 10.0 mi ESE 10.4 mph - N/A   Mostly Cloudy
3:53 AM 35.1 °F 27.9 °F 21.0 °F 57% 29.99 in 10.0 mi East 9.2 mph - N/A   Mostly Cloudy
4:53 AM 36.0 °F 27.1 °F 19.9 °F 52% 29.96 in 10.0 mi East 13.8 mph - N/A   Clear
5:53 AM 36.0 °F 28.0 °F 21.0 °F 55% 29.96 in 10.0 mi East 11.5 mph - N/A   Clear
6:53 AM 35.1 °F 26.9 °F 21.0 °F 57% 29.99 in 10.0 mi East 11.5 mph - N/A   Clear
7:53 AM 37.0 °F 28.9 °F 21.9 °F 54% 29.99 in 10.0 mi East 12.7 mph - N/A   Clear
9:53 AM 46.9 °F - 21.9 °F 37% 29.91 in 10.0 mi ESE 18.4 mph - N/A   Clear
10:53 AM 52.0 °F - 21.0 °F 30% 29.87 in 10.0 mi SSE 18.4 mph 28.8 mph N/A   Clear
11:53 AM 53.1 °F - 21.0 °F 29% 29.83 in 10.0 mi SE 18.4 mph 26.5 mph N/A   Clear
12:53 PM 55.0 °F - 21.0 °F 27% 29.76 in 10.0 mi SE 23.0 mph 31.1 mph N/A   Clear
1:23 PM 57.2 °F - 12.2 °F 17% 29.77 in 10.0 mi South 19.6 mph 34.5 mph N/A   Clear
1:53 PM 57.9 °F - 12.0 °F 16% 29.70 in 10.0 mi SSW 21.9 mph 33.4 mph N/A   Partly Cloudy
2:53 PM 60.1 °F - 3.9 °F 11% 29.66 in 10.0 mi SSW 21.9 mph 33.4 mph N/A   Clear
3:53 PM 57.9 °F - 1.0 °F 10% 29.63 in 10.0 mi SSW 25.3 mph 34.5 mph N/A   Clear
4:53 PM 55.9 °F - 1.9 °F 11% 29.64 in 10.0 mi SW 24.2 mph 35.7 mph N/A   Clear
5:53 PM 50.0 °F - 1.9 °F 14% 29.67 in 10.0 mi SW 10.4 mph - N/A   Clear
6:53 PM 42.1 °F 39.2 °F 3.9 °F 21% 29.70 in 10.0 mi WSW 4.6 mph - N/A   Clear
7:53 PM 41.0 °F 36.4 °F 8.1 °F 26% 29.71 in 10.0 mi SW 6.9 mph - N/A   Clear
8:53 PM 41.0 °F 37.1 °F 9.0 °F 27% 29.70 in 10.0 mi SW 5.8 mph - N/A   Clear
9:53 PM 37.0 °F - 10.9 °F 34% 29.71 in 10.0 mi Calm Calm - N/A   Clear
10:53 PM 30.9 °F - 10.9 °F 43% 29.71 in 10.0 mi Calm Calm - N/A   Clear
11:53 PM 30.9 °F - 12.0 °F 46% 29.71 in 10.0 mi Calm Calm - N/A   Clear